Keps
Threads by month
- ----- 2025 -----
- February
- January
- ----- 2024 -----
- December
- November
- October
- September
- August
- July
- June
- May
- April
- March
- February
- January
- ----- 2023 -----
- December
- November
- October
- September
- August
- July
- June
- May
- April
- March
- February
- January
- ----- 2022 -----
- December
- November
- October
- September
- August
- July
- June
- May
- April
- March
- February
- January
- ----- 2021 -----
- December
- November
- October
- September
- August
- July
- June
- May
- April
- March
- February
- January
- ----- 2020 -----
- December
- November
- October
- September
- August
- July
- June
- May
- April
- March
- February
- January
- ----- 2019 -----
- December
- November
- October
- September
- August
- July
- June
- May
- April
- March
- February
- January
- ----- 2018 -----
- December
- November
- October
- September
- August
- July
- June
- May
- April
- March
- February
- January
- ----- 2017 -----
- December
- November
- October
- September
- August
- July
- June
- May
- April
- March
- February
- January
- ----- 2016 -----
- December
- November
- October
- September
- August
- July
- June
- May
- April
- March
- February
- January
- ----- 2015 -----
- December
- November
- October
- September
- August
- July
- June
- May
- April
- March
- February
- January
- ----- 2014 -----
- December
- November
- October
- September
- August
- July
- June
- May
- April
- March
- February
- January
- ----- 2013 -----
- December
- November
- October
- September
- August
- July
- June
- May
- April
- March
- February
- January
- ----- 2012 -----
- December
- November
- October
- September
- August
- July
- June
- May
- April
- March
- February
- January
- ----- 2011 -----
- December
- November
- October
- September
- August
- July
- June
- May
- April
- March
- February
- January
- ----- 2010 -----
- December
- November
- October
- September
- August
- July
- June
- May
- April
- March
- February
- January
- ----- 2009 -----
- December
- November
- October
- September
- August
- July
- June
- May
- April
- March
- February
- January
- ----- 2008 -----
- December
- November
- October
- September
- August
- July
- June
- May
- April
- March
- February
- January
- ----- 2007 -----
- December
- November
- October
- September
- August
- July
- June
- May
- April
- March
- February
- January
- ----- 2006 -----
- December
- November
- October
- September
June 2021
- 1 participants
- 8 discussions
30 Jun '21
MIR-SAT1 (Mauritian Infra-Red Satellite 1) was launched from the Japanese
ISS Kibo module at 10:55 UTC on 6-22-2021.
MIR-SAT1 has been identified as NORAD Cat ID 48868 as per Pierros
Papadeas,SV1QVE and Nico Janssen, PA0DLO.
The current TLE for MIR-SAT1 per Space-Track are as follows:
MIR-SAT1
1 48868U 98067SP 21179.69602259 .00013025 00000-0 23878-3 0 9995
2 48868 51.6439 285.7711 0003006 182.6608 177.4342 15.49640979 1031
1
0
SB KEPS @ AMSAT $ORB21175.N
2Line Orbital Elements 21175.AMSAT
HR AMSAT ORBITAL ELEMENTS FOR AMATEUR SATELLITES IN NASA FORMAT
FROM WA5QGD FORT WORTH,TX June 24, 2021
BID: ORB21175.N
DECODE 2-LINE ELSETS WITH THE FOLLOWING KEY:
1 AAAAAU 00 0 0 BBBBB.BBBBBBBB .CCCCCCCC 00000-0 00000-0 0 DDDZ
2 AAAAA EEE.EEEE FFF.FFFF GGGGGGG HHH.HHHH III.IIII JJ.JJJJJJJJKKKKKZ
KEY: A-CATALOGNUM B-EPOCHTIME C-DECAY D-ELSETNUM E-INCLINATION F-RAAN
G-ECCENTRICITY H-ARGPERIGEE I-MNANOM J-MNMOTION K-ORBITNUM Z-CHECKSUM
TO ALL RADIO AMATEURS BT
AO-07
1 07530U 74089B 21175.52474483 -.00000050 00000-0 -27889-4 0 9991
2 07530 101.8541 150.0200 0012407 10.6662 104.8825 12.53649227132612
UO-11
1 14781U 84021B 21175.54485559 .00000079 00000-0 15730-4 0 9993
2 14781 97.5923 175.0370 0009854 63.1811 297.0410 14.83295529986988
LO-19
1 20442U 90005G 21175.81869292 -.00000003 00000-0 15561-4 0 9993
2 20442 98.7419 131.3521 0012494 135.3897 224.8294 14.32989580641948
HUBBLE
1 20580U 90037B 21175.27260081 .00000516 00000-0 20229-4 0 9997
2 20580 28.4710 19.9585 0002791 134.4065 28.7294 15.09665657512075
MET-2/21
1 22782U 93055A 21175.82541428 .00000051 00000-0 32812-4 0 9999
2 22782 82.5493 298.0559 0021032 270.7287 200.5284 13.83837172404814
AO-27
1 22825U 93061C 21175.51478778 -.00000005 00000-0 15941-4 0 9991
2 22825 98.9166 193.3040 0008792 21.5947 338.5603 14.30117581446995
IO-26
1 22826U 93061D 21175.55347052 -.00000005 00000-0 15868-4 0 9994
2 22826 98.9108 193.2516 0009073 8.8714 351.2627 14.30456824447245
FO-29
1 24278U 96046B 21175.47470656 -.00000002 00000-0 31797-4 0 9997
2 24278 98.5668 242.5214 0351225 131.3755 231.8155 13.53105154227194
NOAA-15
1 25338U 98030A 21175.73368079 .00000092 00000-0 57181-4 0 9997
2 25338 98.6809 204.1934 0009205 258.1095 101.9053 14.26039945202288
GO-32
1 25397U 98043D 21175.29320478 -.00000026 00000-0 82035-5 0 9993
2 25397 98.7715 120.8265 0002382 74.9182 285.2260 14.23710311192465
ISS
1 25544U 98067A 21175.84558301 .00058267 00000-0 10669-2 0 9992
2 25544 51.6443 304.8451 0002232 101.7784 359.3562 15.48759103289787
NO-44
1 26931U 01043C 21175.51840316 -.00000013 00000-0 26709-4 0 9996
2 26931 67.0513 262.2039 0006361 261.0794 98.9587 14.30622681 30365
SO-50
1 27607U 02058C 21175.55145214 -.00000021 00000-0 17432-4 0 9995
2 27607 64.5560 316.6402 0041417 18.6143 341.6463 14.75759413995570
CO-55
1 27844U 03031E 21175.51108561 .00000052 00000-0 42769-4 0 9994
2 27844 98.6792 183.6166 0011003 62.1158 298.1133 14.22316053932982
CO-57
1 27848U 03031J 21175.50637451 .00000047 00000-0 40886-4 0 9994
2 27848 98.6848 184.1761 0010981 74.0308 286.2079 14.21892366932812
RS-22
1 27939U 03042A 21175.95293389 .00000066 00000-0 20537-4 0 9996
2 27939 98.1417 312.9941 0011598 254.1816 105.8079 14.66993522948628
NOAA-18
1 28654U 05018A 21175.74149628 .00000107 00000-0 82201-4 0 9991
2 28654 98.9934 240.6350 0013180 260.4584 99.5098 14.12616596829562
CO-58
1 28895U 05043F 21175.32931968 .00000144 00000-0 36542-4 0 9994
2 28895 98.0599 308.4177 0016717 184.1161 175.9906 14.63923834835015
Falconsat-3
1 30776U 07006E 21175.36173081 .00004041 00000-0 97244-4 0 9990
2 30776 35.4353 55.8272 0003430 312.5934 47.4504 15.40835094794175
CO-65
1 32785U 08021C 21175.72570731 .00000256 00000-0 33062-4 0 9995
2 32785 97.6112 154.2861 0012543 346.5311 13.5570 14.88735505713321
AAUSAT2
1 32788U 08021F 21175.51421678 .00000632 00000-0 61858-4 0 9992
2 32788 97.5042 169.8751 0010169 242.8560 117.1625 14.95607135714914
DO-64
1 32789U 08021G 21175.57657437 .00002125 00000-0 13788-3 0 9990
2 32789 97.3752 210.6682 0013429 115.0784 245.1841 15.09035245717907
CO-66
1 32791U 08021J 21175.47392370 .00000278 00000-0 33209-4 0 9992
2 32791 97.5710 159.9495 0011857 307.9362 52.0785 14.91425000713821
RS-30
1 32953U 08025A 21173.45925555 .00000021 00000-0 80971-4 0 9993
2 32953 82.5041 47.8171 0019270 329.3369 30.6583 12.43102078593602
PRISM
1 33493U 09002B 21175.47716468 .00000167 00000-0 19837-4 0 9998
2 33493 98.1889 138.3581 0013700 264.8378 95.1279 14.97689669675371
NOAA-19
1 33591U 09005A 21175.77626767 .00000101 00000-0 79953-4 0 9998
2 33591 99.1825 196.6634 0014961 110.6726 249.6051 14.12477481637952
SRMSAT
1 37841U 11058D 21175.56065332 .00000298 00000-0 18784-4 0 9995
2 37841 19.9716 258.1253 0011995 12.6497 16.6722 14.10697676500868
HRBE
1 37855U 11061F 21175.52398404 .00002998 00000-0 14981-3 0 9992
2 37855 101.7128 102.5871 0166983 49.6876 311.8792 15.07723912527717
RS-40
1 38735U 12041C 21175.92109463 .00000036 00000-0 19124-3 0 9993
2 38735 82.4755 128.4394 0018492 70.1449 290.1642 12.42583302404113
ZACUBE-1
1 39417U 13066B 21175.74440381 .00000248 00000-0 37114-4 0 9991
2 39417 97.5928 159.6939 0059645 136.0944 224.5032 14.81526638410157
GOMX-1
1 39430U 13066Q 21173.53691270 .00000216 00000-0 47398-4 0 9996
2 39430 97.8144 96.3165 0152016 98.7420 263.1032 14.59619365403787
LO-74
1 39440U 13066AA 21175.50127806 .00000192 00000-0 33655-4 0 9999
2 39440 97.6764 144.4985 0078871 211.7563 147.8878 14.76255099407464
AO-73
1 39444U 13066AE 21175.79160839 .00000325 00000-0 45603-4 0 9991
2 39444 97.5834 162.1043 0058905 126.4000 234.2667 14.82436707409116
SPROUT
1 39770U 14029E 21173.58578926 .00000919 00000-0 10505-3 0 9999
2 39770 97.9185 284.8553 0008834 181.6277 178.4913 14.88449946384103
DTUSAT-2
1 40030U 14033W 21175.74667806 .00000325 00000-0 40469-4 0 9995
2 40030 97.9163 102.9912 0012531 144.8184 215.3862 14.89004356380918
EO-80
1 40032U 14033Y 21175.77729083 .00000265 00000-0 34211-4 0 9997
2 40032 97.9171 103.0286 0012487 145.5025 214.7005 14.88962006380902
HODOYOSHI-1
1 40299U 14070B 21175.85378943 .00000666 00000-0 29671-4 0 9996
2 40299 97.2861 249.2328 0011763 329.2193 142.9757 15.24748996368542
FIREBIRD FU3
1 40377U 15003B 21175.45361307 .00004648 00000-0 16945-3 0 9995
2 40377 99.1004 318.1497 0118083 149.0871 211.7382 15.22490078353856
FIREBIRD FU4
1 40378U 15003C 21175.29834593 .00004721 00000-0 17174-3 0 9997
2 40378 99.1009 318.1039 0118157 149.4013 211.4181 15.22539069353845
GRIFEX
1 40379U 15003D 21175.65332496 .00003282 00000-0 13419-3 0 9992
2 40379 99.0966 307.7924 0128355 180.8166 179.2873 15.18096160353285
NO-84
1 40654U 15025D 21173.74543777 .00037057 00000-0 24918-3 0 518
2 40654 54.9805 16.7423 0078595 80.0817 280.9374 15.70603923 7885
XW-2A
1 40903U 15049E 21175.88460782 .00003079 00000-0 66193-4 0 9992
2 40903 97.2357 230.3435 0011809 356.7835 117.1645 15.45379485323944
XW-2C
1 40906U 15049H 21175.88236470 .00000671 00000-0 37524-4 0 9991
2 40906 97.4842 178.1413 0015196 155.9195 288.4376 15.16762945318698
XW-2D
1 40907U 15049J 21175.92995532 .00000882 00000-0 47831-4 0 9994
2 40907 97.4845 177.9854 0014656 151.8945 232.0105 15.17087594318737
LILACSAT-2
1 40908U 15049K 21175.93510686 .00000336 00000-0 21824-4 0 9997
2 40908 97.5032 175.8238 0015932 168.2661 210.5348 15.14452219318361
XW-2E
1 40909U 15049L 21175.88303646 .00001282 00000-0 63369-4 0 9999
2 40909 97.4650 181.9585 0014268 138.6610 306.5914 15.19571911319065
